Language: 


Des rapports , des résumés tant et plus, au choix de chacun....


Données statistiques de la station
Quotidien Rapport Janvier 20, 2017 Unités:  Anglais    Métrique   les deux
« Précédent Jour
Suivant Jour »
Quotidien Hebdomadaire Mensuel Annuel Actuel
  Haut: Bas: Moyen:
Température: 40.6 °F 25.5 °F 31.3 °F
Pt de rosée: 27 °F 19.6 °F 23 °F
Humidité: 89 % 0 % 72 %
Vitesse du vent: 9.8 mph 0 mph 5 mph
Rafales: 10.7 mph - -
Vent:- - ENE
Pression: 30.5 in 30.4 in -
Précipitation: 0 in    
Historical Graphs
 
 
Données statistiques pour Janvier 20, 2017
Heure Température Point de rosée Pression Vent Vitesse du vent Refales Humidité Pluie (taux horaire)
00:01 28.6 °F 22.6 °F 30.5 in NNE 3.8 mph 5.8 mph 78 % 0 in
00:06 28.6 °F 22.5 °F 30.5 in NE 4.3 mph 5.8 mph 78 % 0 in
00:11 28.2 °F 22.3 °F 30.5 in NE 4 mph 4.3 mph 78 % 0 in
00:16 28 °F 22.5 °F 30.5 in NNE 4.7 mph 5.6 mph 79 % 0 in
00:21 28 °F 22.5 °F 30.5 in NNE 4.3 mph 6 mph 79 % 0 in
00:26 27.9 °F 22.3 °F 30.5 in North 5.4 mph 6 mph 79 % 0 in
00:31 27.9 °F 22.6 °F 30.5 in North 5.4 mph 6.5 mph 80 % 0 in
00:36 28 °F 22.6 °F 30.5 in NE 5.8 mph 6.5 mph 80 % 0 in
00:41 28 °F 22.6 °F 30.5 in NNE 7.4 mph 7.4 mph 80 % 0 in
00:46 28 °F 22.6 °F 30.5 in NE 6.5 mph 7.4 mph 80 % 0 in
00:51 28 °F 22.6 °F 30.5 in NNE 4 mph 7.2 mph 80 % 0 in
00:56 28 °F 23 °F 30.5 in NNE 4.3 mph 6.5 mph 81 % 0 in
01:01 27.9 °F 22.6 °F 30.5 in NE 3.6 mph 6.3 mph 80 % 0 in
01:06 27.9 °F 22.8 °F 30.5 in NNE 4.5 mph 6 mph 81 % 0 in
01:11 27.9 °F 22.6 °F 30.5 in North 4 mph 6 mph 81 % 0 in
01:16 27.9 °F 22.6 °F 30.5 in North 4 mph 7.2 mph 81 % 0 in
01:21 27.7 °F 22.5 °F 30.5 in NNE 4.9 mph 7.2 mph 81 % 0 in
01:26 27.7 °F 22.5 °F 30.5 in NE 4 mph 6.3 mph 81 % 0 in
01:31 27.3 °F 22.6 °F 30.5 in NNE 3.4 mph 6.3 mph 82 % 0 in
01:36 27.3 °F 22.6 °F 30.5 in North 5.4 mph 5.6 mph 82 % 0 in
01:41 27.1 °F 22.5 °F 30.5 in NE 3.6 mph 5.6 mph 82 % 0 in
01:46 27.1 °F 22.5 °F 30.5 in NNE 4.9 mph 6 mph 82 % 0 in
01:51 27.1 °F 22.5 °F 30.5 in NNE 5.6 mph 6.5 mph 82 % 0 in
01:56 27.1 °F 22.8 °F 30.5 in NNE 6 mph 6.5 mph 83 % 0 in
02:02 32 °F 22.8 °F 30.5 in Calm     0 % 0 in
02:07 27.1 °F 22.8 °F 30.5 in North 5.4 mph 6.9 mph 83 % 0 in
02:12 27.1 °F 22.6 °F 30.5 in NE 4.9 mph 7.2 mph 83 % 0 in
02:17 27.1 °F 22.6 °F 30.5 in NNE 4.3 mph 7.2 mph 83 % 0 in
02:22 27.1 °F 22.8 °F 30.5 in NNE 4.9 mph 6.5 mph 83 % 0 in
02:27 27.1 °F 23 °F 30.5 in NNE 6.5 mph 6.5 mph 84 % 0 in
02:32 27.1 °F 23 °F 30.5 in NE 6 mph 7.6 mph 84 % 0 in
02:37 27.1 °F 23 °F 30.5 in NNE 7.2 mph 7.8 mph 84 % 0 in
02:42 27.1 °F 23 °F 30.5 in NE 5.8 mph 7.8 mph 84 % 0 in
02:47 27.1 °F 23 °F 30.5 in NE 6 mph 7.4 mph 84 % 0 in
02:52 27.1 °F 23 °F 30.5 in North 4.9 mph 8.7 mph 84 % 0 in
02:57 27.1 °F 23 °F 30.5 in NE 6.3 mph 8.7 mph 84 % 0 in
03:02 27.1 °F 22.8 °F 30.5 in NNE 5.8 mph 8.1 mph 84 % 0 in
03:07 27.1 °F 22.8 °F 30.5 in North 6.5 mph 8.1 mph 84 % 0 in
03:12 27.1 °F 22.8 °F 30.5 in NE 2.9 mph 6.5 mph 84 % 0 in
03:17 27.1 °F 22.8 °F 30.5 in NNE 4.9 mph 6 mph 84 % 0 in
03:22 27.1 °F 22.8 °F 30.5 in North 5.6 mph 6 mph 84 % 0 in
03:27 27.1 °F 22.8 °F 30.5 in NNE 4.3 mph 6.3 mph 84 % 0 in
03:32 27.1 °F 22.8 °F 30.5 in NNE 6 mph 6.3 mph 84 % 0 in
03:37 27.1 °F 22.8 °F 30.5 in NNE 6.5 mph 6.7 mph 84 % 0 in
03:42 27.1 °F 22.8 °F 30.5 in NNE 4.3 mph 7.4 mph 84 % 0 in
03:47 27.1 °F 22.8 °F 30.5 in NNE 6 mph 7.4 mph 84 % 0 in
03:52 27 °F 22.6 °F 30.5 in NE 5.4 mph 7.4 mph 84 % 0 in
03:57 27 °F 22.6 °F 30.5 in NE 5.6 mph 6.5 mph 84 % 0 in
04:02 27.1 °F 22.8 °F 30.5 in NE 6.5 mph 7.2 mph 84 % 0 in
04:07 27.1 °F 23.2 °F 30.5 in NE 4.3 mph 7.4 mph 85 % 0 in
04:12 27.1 °F 23.2 °F 30.5 in NE 5.6 mph 7.4 mph 85 % 0 in
04:17 27.1 °F 23.2 °F 30.5 in NE 3.6 mph 6.5 mph 85 % 0 in
04:22 27.1 °F 23.2 °F 30.5 in NE 5.6 mph 6.7 mph 85 % 0 in
04:27 27.1 °F 23.4 °F 30.5 in NE 3.6 mph 6.7 mph 85 % 0 in
04:32 27.1 °F 23.4 °F 30.5 in NE 4.3 mph 6.5 mph 85 % 0 in
04:37 27.1 °F 23.4 °F 30.5 in NE 5.4 mph 7.2 mph 85 % 0 in
04:42 27.1 °F 23.4 °F 30.5 in NE 4 mph 7.2 mph 85 % 0 in
04:47 27.1 °F 23.4 °F 30.5 in ENE 4.9 mph 6.5 mph 85 % 0 in
04:52 27.1 °F 23.4 °F 30.5 in NNE 4.3 mph 6 mph 85 % 0 in
04:57 27.1 °F 23.2 °F 30.5 in NNE 4.3 mph 5.8 mph 85 % 0 in
05:02 27.1 °F 23.2 °F 30.5 in NE 2.9 mph 7.6 mph 85 % 0 in
05:07 27.1 °F 23.2 °F 30.5 in NE 5.4 mph 7.6 mph 85 % 0 in
05:12 27.1 °F 23.5 °F 30.5 in NE 5.6 mph 6.3 mph 86 % 0 in
05:17 27.3 °F 23.7 °F 30.5 in NNE 5.6 mph 7.6 mph 86 % 0 in
05:22 27.3 °F 23.7 °F 30.5 in ENE 5.4 mph 7.6 mph 86 % 0 in
05:27 27.3 °F 23.7 °F 30.5 in NNE 7.4 mph 8.7 mph 86 % 0 in
05:32 27.3 °F 23.7 °F 30.5 in NE 6 mph 8.7 mph 86 % 0 in
05:37 27.3 °F 23.7 °F 30.5 in NE 5.8 mph 7.6 mph 86 % 0 in
05:42 27.7 °F 24.1 °F 30.5 in NNE 5.6 mph 7.8 mph 86 % 0 in
05:47 27.7 °F 24.1 °F 30.5 in NNE 5.6 mph 8.5 mph 86 % 0 in
05:52 27.7 °F 24.1 °F 30.5 in NE 5.4 mph 8.5 mph 86 % 0 in
05:57 27.3 °F 23.7 °F 30.5 in NNE 6.3 mph 8.5 mph 86 % 0 in
06:02 27.3 °F 23.7 °F 30.5 in NE 6 mph 7.8 mph 86 % 0 in
06:07 27.1 °F 23.4 °F 30.5 in NE 7.2 mph 7.2 mph 86 % 0 in
06:12 27.1 °F 23.4 °F 30.5 in ENE 4 mph 7.2 mph 86 % 0 in
06:17 27.1 °F 23.4 °F 30.5 in NE 3.8 mph 8.1 mph 86 % 0 in
06:22 27.1 °F 23.4 °F 30.5 in NE 5.4 mph 8.1 mph 86 % 0 in
06:28 27.1 °F 23.4 °F 30.5 in ENE 6 mph 6.7 mph 86 % 0 in
06:32 27 °F 23.4 °F 30.5 in NE 4.9 mph 6.5 mph 86 % 0 in
06:37 26.8 °F 23.4 °F 30.5 in NE 4.9 mph 6.5 mph 87 % 0 in
06:43 26.8 °F 23.4 °F 30.5 in ENE 5.4 mph 6.7 mph 87 % 0 in
06:48 27 °F 23.5 °F 30.5 in NE 5.4 mph 7.6 mph 87 % 0 in
06:53 27 °F 23.5 °F 30.5 in NE 4.3 mph 7.6 mph 87 % 0 in
06:58 27.1 °F 23.7 °F 30.5 in NE 7.6 mph 7.6 mph 87 % 0 in
07:03 27.1 °F 23.7 °F 30.5 in NE 5.4 mph 7.6 mph 87 % 0 in
07:08 27.1 °F 23.7 °F 30.5 in NE 5.4 mph 7.8 mph 87 % 0 in
07:13 27 °F 23.5 °F 30.5 in NNE 4.9 mph 7.8 mph 87 % 0 in
07:18 26.8 °F 23.4 °F 30.5 in North 3.8 mph 5.8 mph 87 % 0 in
07:23 26.4 °F 23 °F 30.5 in North 3.8 mph 5.4 mph 87 % 0 in
07:28 26.4 °F 23.2 °F 30.5 in ENE 6.5 mph 6.5 mph 87 % 0 in
07:33 26.4 °F 23.5 °F 30.5 in NE 4.7 mph 7.8 mph 88 % 0 in
07:38 26.4 °F 23.5 °F 30.5 in NE 3.8 mph 7.8 mph 88 % 0 in
07:43 26.4 °F 23.5 °F 30.5 in ENE 4.9 mph 5.6 mph 88 % 0 in
07:48 26.4 °F 23.4 °F 30.5 in NE 3.8 mph 5.6 mph 88 % 0 in
07:53 26.2 °F 22.8 °F 30.5 in NE 4 mph 5.8 mph 87 % 0 in
07:58 26.1 °F 22.6 °F 30.5 in NNE 4 mph 5.8 mph 87 % 0 in
08:03 25.9 °F 22.5 °F 30.5 in NE 4 mph 5.6 mph 87 % 0 in
08:08 25.5 °F 22.3 °F 30.5 in NE 4 mph 4.9 mph 87 % 0 in
08:13 25.5 °F 22.6 °F 30.5 in NE 3.8 mph 4.9 mph 88 % 0 in
08:18 25.5 °F 22.6 °F 30.5 in ENE 4 mph 4.9 mph 88 % 0 in
08:23 25.5 °F 22.6 °F 30.5 in ENE 3.4 mph 6 mph 88 % 0 in
08:28 25.5 °F 22.6 °F 30.5 in North 4.3 mph 6.5 mph 88 % 0 in
08:33 25.5 °F 22.6 °F 30.5 in NE 4.9 mph 7.2 mph 88 % 0 in
08:38 25.9 °F 22.8 °F 30.5 in ENE 5.4 mph 7.2 mph 88 % 0 in
08:43 25.9 °F 23 °F 30.5 in NNE 7.2 mph 7.2 mph 89 % 0 in
08:48 25.9 °F 23 °F 30.5 in NNE 7.6 mph 7.8 mph 89 % 0 in
08:53 25.9 °F 23 °F 30.5 in NE 6.3 mph 7.8 mph 89 % 0 in
08:58 25.9 °F 23 °F 30.5 in North 4.9 mph 8.1 mph 89 % 0 in
09:03 26.1 °F 23.2 °F 30.5 in NE 6.3 mph 8.1 mph 89 % 0 in
09:08 26.2 °F 23.4 °F 30.5 in NE 6.5 mph 7.8 mph 89 % 0 in
09:13 26.2 °F 23.4 °F 30.5 in NE 6.5 mph 8.1 mph 89 % 0 in
09:18 26.4 °F 23.5 °F 30.5 in NE 6.5 mph 8.1 mph 89 % 0 in
09:23 26.4 °F 23.7 °F 30.5 in ENE 4.9 mph 6.5 mph 89 % 0 in
09:28 27 °F 24.1 °F 30.5 in NNE 5.4 mph 7.6 mph 89 % 0 in
09:33 27.1 °F 24.3 °F 30.5 in NNE 6 mph 7.6 mph 89 % 0 in
09:38 27.1 °F 24.4 °F 30.5 in NNE 3.4 mph 7.6 mph 89 % 0 in
09:43 27.7 °F 24.8 °F 30.5 in ENE 4.3 mph 7.6 mph 89 % 0 in
09:48 27.9 °F 25.2 °F 30.5 in NE 3.6 mph 6.5 mph 89 % 0 in
09:53 28.6 °F 25.5 °F 30.5 in NE 5.4 mph 6.5 mph 89 % 0 in
09:58 28.8 °F 25.7 °F 30.5 in NE 4.9 mph 6.3 mph 88 % 0 in
10:03 29.1 °F 26.1 °F 30.5 in ENE 5.4 mph 6.3 mph 88 % 0 in
10:08 29.5 °F 26.1 °F 30.5 in ENE 3.6 mph 6.5 mph 87 % 0 in
10:13 30 °F 26.8 °F 30.5 in NE 3.8 mph 6.5 mph 87 % 0 in
10:18 30.2 °F 26.6 °F 30.5 in ENE 5.6 mph 5.6 mph 86 % 0 in
10:23 30.7 °F 26.8 °F 30.5 in NE 4 mph 5.8 mph 85 % 0 in
10:28 31.1 °F 26.8 °F 30.5 in NE 4 mph 5.8 mph 84 % 0 in
10:33 31.3 °F 26.8 °F 30.5 in NE 4 mph 6 mph 83 % 0 in
10:38 31.6 °F 26.8 °F 30.5 in ENE 5.6 mph 6.3 mph 82 % 0 in
10:43 32 °F 26.8 °F 30.5 in ENE 5.6 mph 6.3 mph 81 % 0 in
10:48 32.4 °F 27 °F 30.5 in NE 4.3 mph 7.2 mph 80 % 0 in
10:53 32.4 °F 26.6 °F 30.5 in NE 5.6 mph 7.2 mph 79 % 0 in
10:58 32.7 °F 27 °F 30.5 in ENE 5.8 mph 6.5 mph 79 % 0 in
11:03 33.1 °F 27 °F 30.5 in East 5.6 mph 6.5 mph 78 % 0 in
11:08 33.3 °F 26.4 °F 30.5 in NE 3.8 mph 6.9 mph 76 % 0 in
11:13 33.8 °F 26.8 °F 30.5 in ENE 4 mph 6.9 mph 75 % 0 in
11:18 34 °F 26.4 °F 30.5 in NE 6 mph 7.2 mph 74 % 0 in
11:23 34 °F 26.2 °F 30.5 in NE 6.5 mph 7.2 mph 73 % 0 in
11:28 34.3 °F 26.4 °F 30.5 in ENE 5.4 mph 6.5 mph 73 % 0 in
11:33 34.5 °F 26.4 °F 30.5 in ENE 3.8 mph 6.5 mph 72 % 0 in
11:38 34.9 °F 26.8 °F 30.5 in ENE 6 mph 6.5 mph 72 % 0 in
11:43 35.2 °F 26.8 °F 30.5 in ENE 3.8 mph 6.5 mph 71 % 0 in
11:48 35.4 °F 27 °F 30.5 in ENE 6.5 mph 8.1 mph 71 % 0 in
11:53 35.8 °F 26.4 °F 30.5 in ENE 6 mph 8.1 mph 69 % 0 in
11:58 35.8 °F 26.2 °F 30.5 in NE 5.8 mph 7.6 mph 68 % 0 in
12:03 36.1 °F 26.2 °F 30.5 in NE 5.8 mph 8.1 mph 67 % 0 in
12:08 36.1 °F 26.2 °F 30.4 in ENE 4.9 mph 8.1 mph 67 % 0 in
12:13 36.7 °F 25.9 °F 30.4 in NE 5.8 mph 8.1 mph 65 % 0 in
12:18 36.7 °F 25.5 °F 30.4 in ENE 5.8 mph 8.1 mph 64 % 0 in
12:23 36.7 °F 24.8 °F 30.4 in East 6.5 mph 8.5 mph 62 % 0 in
12:28 36.9 °F 25.2 °F 30.4 in East 6.5 mph 8.5 mph 62 % 0 in
12:33 37 °F 25 °F 30.4 in ENE 6.3 mph 7.6 mph 61 % 0 in
12:38 37.6 °F 24.4 °F 30.4 in ENE 3.4 mph 8.7 mph 59 % 0 in
12:43 37.6 °F 24.6 °F 30.4 in East 6.9 mph 9.8 mph 59 % 0 in
12:48 37.8 °F 23.9 °F 30.4 in ENE 8.5 mph 9.8 mph 57 % 0 in
12:53 37.9 °F 24.1 °F 30.4 in ENE 5.6 mph 8.7 mph 57 % 0 in
12:58 38.5 °F 24.4 °F 30.4 in NNE 4.3 mph 8.7 mph 57 % 0 in
13:03 38.5 °F 24.6 °F 30.4 in East 5.4 mph 7.8 mph 57 % 0 in
13:08 38.8 °F 25 °F 30.4 in ENE 5.8 mph 7.4 mph 57 % 0 in
13:13 39.2 °F 25.3 °F 30.4 in NE 6 mph 7.4 mph 57 % 0 in
13:18 39.4 °F 25.3 °F 30.4 in NE 6 mph 7.8 mph 57 % 0 in
13:23 39.2 °F 24.4 °F 30.4 in ENE 7.4 mph 8.5 mph 55 % 0 in
13:28 39.2 °F 24.1 °F 30.4 in ENE 7.4 mph 8.7 mph 54 % 0 in
13:33 39.2 °F 24.1 °F 30.4 in ENE 9.6 mph 10.1 mph 54 % 0 in
13:38 39.6 °F 24.3 °F 30.4 in ENE 6.5 mph 10.1 mph 54 % 0 in
13:43 39.6 °F 24.3 °F 30.4 in ENE 8.5 mph 9.6 mph 54 % 0 in
13:48 39.7 °F 24.4 °F 30.4 in NE 7.4 mph 8.5 mph 54 % 0 in
13:53 39.7 °F 24.1 °F 30.4 in ENE 5.8 mph 9.6 mph 53 % 0 in
13:58 40.1 °F 24.3 °F 30.4 in ENE 5.8 mph 9.8 mph 53 % 0 in
14:03 40.1 °F 24.3 °F 30.4 in NNE 7.6 mph 9.8 mph 53 % 0 in
14:08 39.7 °F 24.1 °F 30.4 in NE 9.6 mph 10.5 mph 53 % 0 in
14:13 39.6 °F 23.7 °F 30.4 in NE 9.8 mph 10.5 mph 53 % 0 in
14:18 39.6 °F 23.7 °F 30.4 in NE 6 mph 10.7 mph 53 % 0 in
14:23 39.7 °F 24.4 °F 30.4 in ENE 6.5 mph 10.7 mph 54 % 0 in
14:28 39.9 °F 24.6 °F 30.4 in NE 6 mph 8.7 mph 54 % 0 in
14:33 40.1 °F 24.3 °F 30.4 in NE 4.9 mph 8.7 mph 53 % 0 in
14:38 40.1 °F 24.3 °F 30.4 in ENE 6.3 mph 7.6 mph 53 % 0 in
14:43 40.1 °F 24.3 °F 30.4 in NE 7.4 mph 7.6 mph 53 % 0 in
14:48 40.1 °F 23.9 °F 30.4 in NE 6 mph 8.5 mph 52 % 0 in
14:53 40.1 °F 23.9 °F 30.4 in NE 6.5 mph 8.5 mph 52 % 0 in
14:58 40.3 °F 24.1 °F 30.4 in ENE 5.8 mph 7.8 mph 52 % 0 in
15:04 40.3 °F 24.4 °F 30.4 in ENE 5.6 mph 7.8 mph 53 % 0 in
15:09 40.5 °F 24.6 °F 30.4 in ENE 6.5 mph 6.5 mph 53 % 0 in
15:14 40.5 °F 24.3 °F 30.4 in East 4 mph 6.5 mph 52 % 0 in
15:19 40.6 °F 24.4 °F 30.4 in NE 4 mph 6.5 mph 52 % 0 in
15:24 40.5 °F 24.3 °F 30.4 in ENE 4.3 mph 6.7 mph 52 % 0 in
15:29 40.6 °F 24.4 °F 30.4 in NE 4.3 mph 6.7 mph 52 % 0 in
15:34 40.6 °F 24.4 °F 30.4 in NE 4.7 mph 6.3 mph 52 % 0 in
15:39 40.6 °F 24.4 °F 30.4 in NE 3.8 mph 6.3 mph 52 % 0 in
15:44 40.5 °F 24.3 °F 30.4 in NE 5.4 mph 6.3 mph 52 % 0 in
15:49 40.5 °F 24.3 °F 30.4 in NE 3.8 mph 6.3 mph 52 % 0 in
15:54 40.5 °F 23.7 °F 30.4 in ENE 3.8 mph 6.7 mph 51 % 0 in
15:59 40.3 °F 23.5 °F 30.4 in East 3.8 mph 6.7 mph 51 % 0 in
16:04 40.1 °F 23.4 °F 30.4 in ENE 6 mph 7.2 mph 51 % 0 in
16:09 40.1 °F 23.4 °F 30.4 in East 4.9 mph 7.2 mph 51 % 0 in
16:14 40.1 °F 23.4 °F 30.4 in ENE 4.3 mph 6.5 mph 51 % 0 in
16:44 37.8 °F 21.4 °F 30.4 in East 3.8 mph 6.5 mph 51 % 0 in
16:49 37.6 °F 21 °F 30.4 in ENE 6.3 mph 6.5 mph 51 % 0 in
16:54 37.2 °F 21.4 °F 30.4 in NE 3.1 mph 6.5 mph 52 % 0 in
16:59 36.9 °F 20.8 °F 30.4 in ENE 3.8 mph 5.6 mph 52 % 0 in
17:04 36.7 °F 20.7 °F 30.4 in ENE 3.4 mph 5.8 mph 52 % 0 in
17:09 36.1 °F 20.7 °F 30.4 in ENE 4 mph 5.8 mph 53 % 0 in
17:14 36 °F 20.5 °F 30.4 in ENE 3.4 mph 4.7 mph 53 % 0 in
17:19 35.8 °F 20.1 °F 30.4 in NE 6.5 mph 6.5 mph 53 % 0 in
17:24 35.4 °F 20.1 °F 30.4 in NE 5.4 mph 6.5 mph 53 % 0 in
17:29 35.4 °F 20.1 °F 30.4 in ENE 4.3 mph 6.5 mph 53 % 0 in
17:34 35.4 °F 20.5 °F 30.4 in ENE 4.3 mph 6 mph 54 % 0 in
17:44 35.1 °F 19.9 °F 30.4 in ENE 3.6 mph 5.8 mph 54 % 0 in
17:49 34.5 °F 19.9 °F 30.4 in NE 3.6 mph 5.8 mph 55 % 0 in
17:54 34 °F 19.6 °F 30.4 in NNE 5.4 mph 5.4 mph 55 % 0 in
17:59 34 °F 19.9 °F 30.4 in NNE 5.6 mph 6 mph 56 % 0 in
18:04 34.2 °F 19.9 °F 30.4 in NE 5.6 mph 6.3 mph 56 % 0 in
18:09 34.5 °F 20.5 °F 30.4 in ENE 6.3 mph 6.7 mph 56 % 0 in
18:14 34.3 °F 20.1 °F 30.4 in NNE 5.4 mph 6.7 mph 56 % 0 in
18:19 34.2 °F 19.9 °F 30.4 in NE 3.8 mph 6.3 mph 56 % 0 in
18:24 33.8 °F 20.1 °F 30.4 in NNE 4.9 mph 5.4 mph 57 % 0 in
18:29 33.4 °F 20.1 °F 30.4 in NE 4 mph 4.9 mph 58 % 0 in
18:34 33.3 °F 19.9 °F 30.4 in NNE 3.8 mph 5.6 mph 58 % 0 in
18:39 33.3 °F 20.5 °F 30.4 in NNE 4 mph 5.8 mph 59 % 0 in
18:44 33.1 °F 21 °F 30.4 in NNE 3.4 mph 5.8 mph 61 % 0 in
18:49 32.7 °F 20.7 °F 30.4 in NNE 3.8 mph 5.6 mph 61 % 0 in
18:54 32.5 °F 20.8 °F 30.4 in NNE 3.1 mph 4.9 mph 62 % 0 in
18:59 32.2 °F 21 °F 30.4 in NNE 4.7 mph 4.9 mph 63 % 0 in
19:04 31.8 °F 21.7 °F 30.4 in NE 3.1 mph 4.9 mph 66 % 0 in
19:09 31.6 °F 21.6 °F 30.4 in NNE 3.6 mph 4.9 mph 66 % 0 in
19:14 31.3 °F 21.2 °F 30.4 in NE 4 mph 4.7 mph 66 % 0 in
19:19 31.3 °F 21.6 °F 30.4 in NNE 3.1 mph 4.7 mph 67 % 0 in
19:24 31.1 °F 21.4 °F 30.4 in NE 3.8 mph 4.3 mph 67 % 0 in
19:29 31.1 °F 21.7 °F 30.4 in NE 4 mph 4.5 mph 68 % 0 in
19:34 31.1 °F 21.7 °F 30.4 in NE 5.8 mph 5.8 mph 68 % 0 in
19:39 31.3 °F 22.6 °F 30.4 in ENE 5.8 mph 6.5 mph 70 % 0 in
19:44 31.8 °F 23.7 °F 30.4 in NE 7.6 mph 7.6 mph 72 % 0 in
19:49 32.2 °F 24.3 °F 30.4 in NE 7.2 mph 7.6 mph 72 % 0 in
19:54 32.5 °F 24.3 °F 30.4 in ENE 5.8 mph 7.8 mph 71 % 0 in
19:59 32.5 °F 24.3 °F 30.4 in NE 5.8 mph 7.8 mph 71 % 0 in
20:04 32.7 °F 24.1 °F 30.4 in NE 5.6 mph 7.4 mph 70 % 0 in
20:09 32.7 °F 23.7 °F 30.4 in ENE 5.4 mph 7.4 mph 69 % 0 in
20:14 32.7 °F 23.4 °F 30.4 in NE 5.4 mph 7.2 mph 68 % 0 in
20:19 32.7 °F 23.4 °F 30.4 in ENE 5.6 mph 7.2 mph 68 % 0 in
20:24 32.5 °F 22.8 °F 30.4 in ENE 5.8 mph 6 mph 67 % 0 in
20:29 32.4 °F 22.6 °F 30.4 in East 5.4 mph 5.8 mph 67 % 0 in
20:34 32.2 °F 22.5 °F 30.4 in ENE 4.3 mph 5.6 mph 67 % 0 in
20:39 32 °F 22.3 °F 30.4 in NE 3.8 mph 5.6 mph 67 % 0 in
20:44 32 °F 22.3 °F 30.4 in ENE 5.6 mph 5.6 mph 67 % 0 in
20:49 32 °F 22.3 °F 30.4 in ENE 4.3 mph 5.6 mph 67 % 0 in
20:54 31.8 °F 22.1 °F 30.4 in East 3.6 mph 5.4 mph 67 % 0 in
20:59 31.6 °F 21.9 °F 30.4 in NE 3.8 mph 4.7 mph 67 % 0 in
21:04 31.6 °F 21.9 °F 30.4 in ENE 3.4 mph 4.9 mph 67 % 0 in
21:09 31.5 °F 21.4 °F 30.4 in ENE 3.1 mph 4.9 mph 66 % 0 in
21:14 31.5 °F 21.4 °F 30.4 in ENE 3.6 mph 4.7 mph 66 % 0 in
21:19 31.5 °F 21.4 °F 30.4 in ENE 3.4 mph 4.7 mph 66 % 0 in
21:24 31.3 °F 21.2 °F 30.4 in ENE 3.6 mph 4.7 mph 66 % 0 in
21:29 31.3 °F 21.2 °F 30.4 in NE 4.3 mph 4.3 mph 66 % 0 in
21:34 31.3 °F 21.2 °F 30.4 in East 5.4 mph 5.8 mph 66 % 0 in
21:39 31.3 °F 21.2 °F 30.4 in East 4.3 mph 5.8 mph 66 % 0 in
21:44 31.1 °F 21 °F 30.4 in ENE 3.4 mph 4.9 mph 66 % 0 in
21:49 30.9 °F 20.8 °F 30.4 in ENE 3.8 mph 4.3 mph 66 % 0 in
21:54 30.9 °F 20.8 °F 30.4 in ENE 3.8 mph 4.3 mph 66 % 0 in
21:59 30.7 °F 20.7 °F 30.4 in ENE 3.6 mph 4.3 mph 66 % 0 in
22:04 30.6 °F 20.7 °F 30.4 in East 4 mph 4.5 mph 66 % 0 in
22:09 30.4 °F 20.5 °F 30.4 in ENE 3.1 mph 4.5 mph 66 % 0 in
22:14 30.2 °F 20.1 °F 30.4 in ENE 3.1 mph 4 mph 66 % 0 in
22:19 30.2 °F 20.1 °F 30.4 in ENE 3.6 mph 4 mph 66 % 0 in
22:24 30.2 °F 20.1 °F 30.4 in ENE 4.3 mph 4.3 mph 66 % 0 in
22:29 30 °F 20.5 °F 30.4 in ENE 3.4 mph 4.7 mph 67 % 0 in
22:34 29.8 °F 20.3 °F 30.4 in East 2.9 mph 4.7 mph 67 % 0 in
22:39 29.7 °F 20.1 °F 30.4 in ENE 2.7 mph 4 mph 67 % 0 in
22:44 29.5 °F 19.9 °F 30.4 in ENE 3.6 mph 4 mph 67 % 0 in
22:49 29.5 °F 19.8 °F 30.4 in ENE 3.1 mph 4 mph 67 % 0 in
22:54 29.1 °F 19.9 °F 30.4 in ENE 3.6 mph 3.8 mph 68 % 0 in
22:59 29.1 °F 19.9 °F 30.4 in East 3.4 mph 4.3 mph 68 % 0 in
23:04 29.1 °F 19.9 °F 30.4 in ENE 3.6 mph 4.3 mph 68 % 0 in
23:09 29.5 °F 20.1 °F 30.4 in East 3.4 mph 4.9 mph 68 % 0 in
23:14 29.5 °F 20.3 °F 30.4 in ENE 3.4 mph 4.9 mph 68 % 0 in
23:19 29.5 °F 20.3 °F 30.4 in ENE 3.6 mph 4.7 mph 68 % 0 in
23:24 29.5 °F 20.7 °F 30.4 in ENE 4.7 mph 5.4 mph 69 % 0 in
23:29 29.5 °F 20.7 °F 30.4 in ENE 3.4 mph 5.4 mph 69 % 0 in
23:34 29.5 °F 20.7 °F 30.4 in ENE 3.8 mph 4.9 mph 69 % 0 in
23:39 29.5 °F 20.7 °F 30.4 in ENE 4 mph 5.8 mph 69 % 0 in
23:44 29.5 °F 20.5 °F 30.4 in ENE 3.1 mph 5.8 mph 69 % 0 in
23:49 29.1 °F 20.3 °F 30.4 in ENE 3.6 mph 4.3 mph 69 % 0 in
23:54 29.5 °F 20.5 °F 30.4 in ENE 3.8 mph 4.3 mph 69 % 0 in
23:59 29.1 °F 20.3 °F 30.4 in ENE 3.8 mph 4.9 mph 69 % 0 in
Le Gheer Warneton
Courtoisie de Weather Underground - 2.25 mb

Mise a jour : 18/12/2017 23:22:12
Généré par Cumulus 1.9.4 (1099)